Location: Alexandria
(38.8050°N, 77.0470°W)
Time: 07:47:38
(UTC-05:00)

ISS - Visible Passes

Search period start: 16 December 2017 00:00
Search period end: 26 December 2017 00:00
Orbit: 402 x 406 km, 51.6° (Epoch: 16 December)

Date Brightness Start Highest point End Pass type
(mag) Time Alt. Az. Time Alt. Az. Time Alt. Az.
16 Dec -3.8 17:16:27 10° NW 17:19:43 59° NE 17:22:56 10° ESE visible
16 Dec -0.6 18:54:14 10° W 18:55:49 13° SW 18:57:24 10° SSW visible
17 Dec -1.4 18:01:00 10° WNW 18:03:45 25° SW 18:06:31 10° S visible
19 Dec 0.2 17:55:19 10° SW 17:55:23 10° SW 17:55:28 10° SW visible
25 Dec -0.6 06:11:14 10° SSE 06:13:10 15° SE 06:15:05 10° E visible
